Estación Meteorológica de la Universidad de Murcia
Estación Meteorológica de la Universidad de Murcia
Universidad de Murcia
 

Humedad relativaHumedad relativa

 

Máxima: 86,5 % a las 23:20:00 del día 03/10/2022
Mínima: 2,7 % a las 14:53:00 del día 03/10/2022

||Humedad máxima últimos meses|| ---- ||Humedad mínima últimos meses||


Humedad máxima

  • 1 - 86,5 % del día 03/10/2022
  • 2 - 86,5 % del día 02/10/2022
  • 3 - 70,5 % del día 01/10/2022
  • 4 - 86,5 % del día 30/09/2022
  • 5 - 57,9 % del día 29/09/2022
  • 6 - 35,1 % del día 28/09/2022
  • 7 - 86,5 % del día 27/09/2022
  • 8 - 86,5 % del día 26/09/2022
  • 9 - 86,5 % del día 25/09/2022
  • 10 - 83 % del día 24/09/2022
  • 11 - 86,5 % del día 23/09/2022
  • 12 - 86,5 % del día 22/09/2022
  • 13 - 77 % del día 21/09/2022
  • 14 - 75,6 % del día 20/09/2022
  • 15 - 62,1 % del día 19/09/2022
  • 16 - 86,5 % del día 18/09/2022
  • 17 - 86,5 % del día 17/09/2022
  • 18 - 77,7 % del día 16/09/2022
  • 19 - 80,8 % del día 15/09/2022
  • 20 - 86,5 % del día 14/09/2022
  • 21 - 86,5 % del día 13/09/2022
  • 22 - 86,5 % del día 12/09/2022
  • 23 - 86,5 % del día 11/09/2022
  • 24 - 86,5 % del día 10/09/2022
  • 25 - 77,4 % del día 09/09/2022
  • 26 - 53,7 % del día 08/09/2022
  • 27 - 85,7 % del día 07/09/2022
  • 28 - 86,5 % del día 06/09/2022
  • 29 - 86,5 % del día 05/09/2022
  • 30 - 86,5 % del día 04/09/2022
  • 31 - 61,6 % del día 03/09/2022
  • 32 - 86,5 % del día 02/09/2022
  • 33 - 86,5 % del día 01/09/2022
  • 34 - 86,5 % del día 31/08/2022
  • 35 - 86,5 % del día 30/08/2022
  • 36 - 86,5 % del día 29/08/2022
  • 37 - 86,5 % del día 28/08/2022
  • 38 - 86,5 % del día 27/08/2022
  • 39 - 86,5 % del día 26/08/2022
  • 40 - 86,5 % del día 25/08/2022
  • 41 - 86,5 % del día 24/08/2022
  • 42 - 86,5 % del día 23/08/2022
  • 43 - 86,5 % del día 22/08/2022
  • 44 - 86,5 % del día 21/08/2022
  • 45 - 76 % del día 20/08/2022
  • 46 - 86,5 % del día 19/08/2022
  • 47 - 68,7 % del día 18/08/2022
  • 48 - 52,3 % del día 17/08/2022
  • 49 - 86,5 % del día 16/08/2022
  • 50 - 64 % del día 15/08/2022
  • 51 - 29,4 % del día 14/08/2022
  • 52 - 13,9 % del día 13/08/2022
  • 53 - 86,5 % del día 12/08/2022
  • 54 - 86,5 % del día 11/08/2022
  • 55 - 86,5 % del día 10/08/2022
  • 56 - 86,5 % del día 09/08/2022
  • 57 - 86,5 % del día 08/08/2022
  • 58 - 86,5 % del día 07/08/2022
  • 59 - 82,7 % del día 06/08/2022

||Volver al inicio de la página||


Humedad mínima

  • 1 - 2,7 % del día 03/10/2022
  • 2 - 0 % del día 02/10/2022
  • 3 - 0 % del día 01/10/2022
  • 4 - 0 % del día 30/09/2022
  • 5 - 0 % del día 29/09/2022
  • 6 - 0 % del día 28/09/2022
  • 7 - 0 % del día 27/09/2022
  • 8 - 14 % del día 26/09/2022
  • 9 - 15,6 % del día 25/09/2022
  • 10 - 0 % del día 24/09/2022
  • 11 - 0 % del día 23/09/2022
  • 12 - 0 % del día 22/09/2022
  • 13 - 0 % del día 21/09/2022
  • 14 - 2,6 % del día 20/09/2022
  • 15 - 8,6 % del día 19/09/2022
  • 16 - 19,3 % del día 18/09/2022
  • 17 - 7 % del día 17/09/2022
  • 18 - 0 % del día 16/09/2022
  • 19 - 0 % del día 15/09/2022
  • 20 - 0 % del día 14/09/2022
  • 21 - 16,9 % del día 13/09/2022
  • 22 - 4,3 % del día 12/09/2022
  • 23 - 0 % del día 11/09/2022
  • 24 - 1,7 % del día 10/09/2022
  • 25 - 0 % del día 09/09/2022
  • 26 - 0 % del día 08/09/2022
  • 27 - 0 % del día 07/09/2022
  • 28 - 0 % del día 06/09/2022
  • 29 - 0 % del día 05/09/2022
  • 30 - 0 % del día 04/09/2022
  • 31 - 0 % del día 03/09/2022
  • 32 - 0 % del día 02/09/2022
  • 33 - 0 % del día 01/09/2022
  • 34 - 0 % del día 31/08/2022
  • 35 - 13,5 % del día 30/08/2022
  • 36 - 11,8 % del día 29/08/2022
  • 37 - 8,3 % del día 28/08/2022
  • 38 - 3,9 % del día 27/08/2022
  • 39 - 8,2 % del día 26/08/2022
  • 40 - 2,7 % del día 25/08/2022
  • 41 - 0 % del día 24/08/2022
  • 42 - 2,4 % del día 23/08/2022
  • 43 - 6,2 % del día 22/08/2022
  • 44 - 0 % del día 21/08/2022
  • 45 - 2,5 % del día 20/08/2022
  • 46 - 0 % del día 19/08/2022
  • 47 - 0 % del día 18/08/2022
  • 48 - 0 % del día 17/08/2022
  • 49 - 0 % del día 16/08/2022
  • 50 - 0 % del día 15/08/2022
  • 51 - 0 % del día 14/08/2022
  • 52 - 0 % del día 13/08/2022
  • 53 - 0 % del día 12/08/2022
  • 54 - 0 % del día 11/08/2022
  • 55 - 0 % del día 10/08/2022
  • 56 - 0 % del día 09/08/2022
  • 57 - 0 % del día 08/08/2022
  • 58 - 0 % del día 07/08/2022
  • 59 - 0 % del día 06/08/2022

 

|| Temperatura Ambiente|| Velocidad y dirección del viento|| Precipitación|| Radiación Solar Global y PAR|| Temperatura y humedad del suelo|| Presión atmosférica|| Más información|| Volver a la página principal|| Volver al inicio de la página||


Estación Meteorológica de la Universidad de Murcia
http://estacion.um.es/
Informacion actualizada a: 05/10/2022 a las 14:20:00